Tracking 30160 objects as of 13-Feb-2025
HD Live streaming from Space Station
objects crossing your sky now

OBJECT S

Track OBJECT S now!
10-day predictions


NORAD ID: 62393
Int'l Code: 2024-247S
Perigee: 506.4 km
Apogee: 512.8 km
Inclination: 45.0 °
Period: 94.7 minutes
Semi major axis: 6880 km
RCS: Unknown
Launch date: December 21, 2024
Source: (TBD)
Launch site: AIR FORCE WESTERN TEST RANGE (AFWTR)
Your satellite tracking list
Your tracking list is empty




NASA's NSSDC Master Catalog

Two Line Element Set (TLE):
1 62393U 24247S   25044.43764847  .00025034  00000-0  11135-2 0  9997
2 62393  44.9910  69.9516 0004692  52.6024 307.5283 15.21114350  8355
Source of the keplerian elements: AFSPC